1530453600.64,46483,15.38,73540.0,0.07,-2.51,-2.43,0,*74
1530453601.9,46484,15.38,73540.5,0.07,-2.55,-2.55,0,*70
1530453603.08,46485,15.38,73542.3,0.09,-2.31,-2.31,0,*7F
1530453604.26,46486,15.38,73540.8,0.09,-2.31,-2.31,0,*7C
1530453605.44,46487,15.38,73542.3,0.09,-2.23,-2.23,0,*7D
1530453606.61,46488,15.38,73540.3,0.09,-2.23,-2.15,0,*77
1530453607.82,46489,15.38,73540.8,0.11,-2.23,-2.19,0,*43
1530453609.02,46490,15.38,73542.3,0.11,-2.35,-2.35,0,*42
1530453610.23,46491,15.38,73538.8,0.13,-2.23,-2.27,0,*45
1530453611.44,46492,15.38,73540.5,0.13,-2.27,-2.35,0,*41
1530453612.71,46493,15.38,73540.0,0.13,-2.47,-2.47,0,*43
1530453613.96,46494,15.38,73540.5,0.11,-2.51,-2.59,0,*4E
1530453615.19,46495,15.38,73538.5,0.11,-2.75,-2.83,0,*4E
1530453616.43,46496,15.38,73540.0,0.13,-2.83,-2.75,0,*4F
1530453617.7,46497,15.38,73538.0,0.13,-2.63,-2.51,0,*46
1530453618.91,46498,15.38,73542.0,0.13,-2.19,-2.19,0,*48
1530453620.12,46499,15.38,73538.0,0.13,-2.19,-2.19,0,*49
1530453621.33,46500,15.38,73536.8,0.13,-2.19,-2.23,0,*41
1530453622.56,46501,15.38,73540.0,0.13,-2.19,-2.11,0,*41
1530453623.8,46502,15.38,73542.0,0.15,-2.07,-2.07,0,*4C
1530453625.05,46503,15.38,73538.3,0.15,-2.47,-2.47,0,*4D
1530453626.31,46504,15.38,73540.8,0.17,-2.55,-2.55,0,*48
1530453627.52,46505,15.38,73542.0,0.17,-2.31,-2.23,0,*4A
1530453628.72,46506,15.38,73540.8,0.17,-2.15,-2.19,0,*46
1530453629.92,46507,15.38,73540.8,0.17,-2.15,-2.19,0,*47
1530453631.13,46508,15.38,73542.8,0.17,-2.31,-2.43,0,*41
1530453632.36,46509,15.38,73540.8,0.19,-2.67,-2.67,0,*4B
1530453633.62,46510,15.38,73542.8,0.17,-2.67,-2.67,0,*4D
1530453634.85,46511,15.38,73542.0,0.17,-2.67,-2.79,0,*43
1530453636.08,46512,15.38,73540.3,0.19,-2.75,-2.75,0,*41
1530453637.32,46513,15.38,73544.0,0.19,-2.75,-2.75,0,*40
1530453638.56,46514,15.38,73542.5,0.19,-2.67,-2.63,0,*43
1530453639.77,46515,15.38,73544.0,0.19,-2.55,-2.43,0,*41
1530453640.95,46516,15.38,73540.5,0.19,-2.39,-2.39,0,*45
1530453642.15,46517,15.38,73540.5,0.21,-2.43,-2.39,0,*42
1530453643.36,46518,15.38,73540.0,0.19,-2.51,-2.39,0,*45
1530453644.61,46519,15.38,73540.8,0.19,-2.63,-2.63,0,*4A
1530453645.85,46520,15.38,73542.0,0.19,-2.75,-2.75,0,*40
1530453647.05,46521,15.38,73536.8,0.21,-2.43,-2.43,0,*4A
1530453648.28,46522,15.38,73540.8,0.21,-2.51,-2.43,0,*4A
1530453649.51,46523,15.38,73542.0,0.21,-2.51,-2.39,0,*46
1530453650.78,46524,15.38,73540.0,0.21,-2.63,-2.63,0,*4F
1530453651.98,46525,15.38,73540.0,0.21,-2.91,-2.87,0,*49
1530453653.19,46526,15.38,73536.8,0.21,-2.91,-2.87,0,*4A
1530453654.37,46527,15.38,73540.5,0.19,-3.03,-3.03,0,*47
1530453655.59,46528,15.38,73536.5,0.19,-2.79,-2.67,0,*47
1530453656.85,46529,15.38,73538.3,0.21,-2.63,-2.55,0,*47
1530453658.08,46530,15.38,73538.8,0.21,-2.51,-2.43,0,*49
1530453659.26,46531,15.38,73536.5,0.19,-2.39,-2.31,0,*48
1530453660.53,46532,15.38,73540.3,0.21,-2.55,-2.51,0,*4C
1530453661.77,46533,15.38,73540.5,0.19,-2.55,-2.51,0,*46
1530453663.03,46534,15.38,73540.0,0.21,-2.63,-2.55,0,*4B
1530453664.24,46535,15.38,73542.3,0.19,-2.51,-2.43,0,*47
1530453665.47,46536,15.38,73536.3,0.21,-2.51,-2.43,0,*4F
1530453666.74,46537,15.38,73536.5,0.21,-2.75,-2.63,0,*4A
1530453668.0,46538,15.38,73538.3,0.21,-2.51,-2.51,0,*42
1530453669.26,46539,15.38,73540.5,0.21,-2.55,-2.55,0,*43
1530453670.53,46540,15.38,73542.5,0.21,-2.55,-2.51,0,*49
1530453671.79,46541,15.38,73540.8,0.21,-2.55,-2.55,0,*4C
1530453672.97,46542,15.38,73538.5,0.19,-2.43,-2.43,0,*44
1530453674.23,46543,15.38,73540.3,0.21,-2.51,-2.55,0,*4A
1530453675.47,46544,15.38,73544.0,0.21,-2.43,-2.51,0,*4A
1530453676.68,46545,15.38,73540.0,0.19,-2.43,-2.63,0,*41
1530453677.91,46546,15.38,73544.8,0.21,-2.43,-2.55,0,*4C
1530453679.15,46547,15.38,73540.0,0.21,-2.43,-2.51,0,*49
1530453680.39,46548,15.38,73536.3,0.23,-2.47,-2.47,0,*47
1530453681.6,46549,15.38,73544.3,0.21,-2.31,-2.43,0,*41
1530453682.8,46550,15.38,73540.3,0.21,-2.27,-2.39,0,*43
1530453684.06,46551,15.38,73544.0,0.21,-2.75,-2.75,0,*4D
1530453685.25,46552,15.38,73540.0,0.19,-2.99,-3.07,0,*43
1530453686.43,46553,15.38,73544.8,0.19,-2.91,-2.87,0,*43
1530453687.69,46554,15.38,73540.3,0.21,-2.67,-2.67,0,*48
1530453688.89,46555,15.38,73540.5,0.21,-2.39,-2.43,0,*44
1530453690.15,46556,15.38,73542.5,0.21,-2.63,-2.63,0,*4A
1530453691.38,46557,15.38,73540.0,0.21,-2.67,-2.79,0,*44
1530453692.64,46558,15.38,73542.8,0.21,-2.67,-2.75,0,*47
1530453693.9,46559,15.38,73540.0,0.21,-2.51,-2.67,0,*40
1530453695.17,46560,15.38,73542.0,0.21,-2.63,-2.55,0,*4A
1530453696.37,46561,15.38,73540.3,0.21,-2.43,-2.43,0,*4E
1530453697.57,46562,15.38,73538.0,0.21,-2.19,-2.27,0,*40
1530453698.79,46563,15.38,73540.3,0.21,-2.31,-2.31,0,*4C
1530453700.05,46564,15.38,73540.3,0.21,-2.55,-2.51,0,*4F
1530453701.25,46565,15.38,73540.0,0.21,-2.39,-2.43,0,*47
1530453702.51,46566,15.38,73540.8,0.21,-2.51,-2.55,0,*4D
1530453703.75,46567,15.38,73542.0,0.23,-2.59,-2.63,0,*43
1530453704.96,46568,15.38,73538.5,0.27,-2.43,-2.55,0,*46
1530453706.2,46569,15.38,73542.8,0.23,-2.51,-2.51,0,*44
1530453707.44,46570,15.38,73542.5,0.23,-2.71,-2.63,0,*4F
1530453708.68,46571,15.38,73540.8,0.23,-2.75,-2.71,0,*49
1530453709.88,46572,15.38,73538.0,0.21,-2.91,-2.91,0,*4C
1530453711.08,46573,15.38,73542.8,0.21,-2.87,-2.91,0,*4A
1530453712.28,46574,15.38,73540.3,0.21,-2.91,-2.91,0,*4A
1530453713.54,46575,15.38,73542.0,0.21,-2.75,-2.75,0,*4B
1530453714.75,46576,15.38,73540.5,0.21,-2.79,-2.79,0,*48
1530453715.98,46577,15.38,73542.0,0.21,-2.51,-2.43,0,*4A
1530453717.24,46578,15.38,73542.0,0.21,-2.51,-2.51,0,*46
1530453718.51,46579,15.38,73540.5,0.21,-2.55,-2.55,0,*47
1530453719.77,46580,15.38,73540.8,0.21,-2.75,-2.75,0,*41
1530453721.03,46581,15.38,73536.5,0.21,-2.67,-2.67,0,*40
1530453722.26,46582,15.38,73542.8,0.21,-2.75,-2.79,0,*4F
1530453723.46,46583,15.38,73538.8,0.21,-2.79,-2.87,0,*43
1530453724.67,46584,15.38,73540.8,0.21,-2.79,-2.79,0,*45
1530453725.93,46585,15.38,73540.8,0.21,-2.55,-2.55,0,*44
1530453727.14,46586,15.38,73540.5,0.21,-2.43,-2.39,0,*4A
1530453728.4,46587,15.38,73540.5,0.21,-2.51,-2.55,0,*42
1530453729.66,46588,15.38,73538.5,0.21,-2.75,-2.75,0,*49
1530453730.9,46589,15.38,73538.5,0.23,-2.51,-2.51,0,*4A
1530453732.08,46590,15.38,73538.5,0.23,-2.27,-2.27,0,*42
1530453733.26,46591,15.38,73540.3,0.23,-2.27,-2.23,0,*47
1530453734.44,46592,15.38,73540.0,0.23,-2.27,-2.27,0,*40
1530453735.63,46593,15.38,73540.5,0.23,-2.35,-2.35,0,*41
1530453736.81,46594,15.38,73542.8,0.23,-2.23,-2.23,0,*46
1530453738.0,46595,15.38,73542.5,0.27,-2.23,-2.31,0,*40
1530453739.21,46596,15.38,73538.5,0.27,-2.11,-2.19,0,*48
1530453740.43,46597,15.38,73540.3,0.23,-2.07,-2.23,0,*43
1530453741.61,46598,15.38,73540.8,0.23,-2.15,-2.27,0,*4B
1530453742.8,46599,15.38,73544.5,0.27,-2.19,-2.31,0,*45
1530453743.98,46600,15.38,73538.8,0.27,-2.19,-2.19,0,*4C
1530453745.22,46601,15.38,73542.5,0.27,-2.07,-2.11,0,*4A
1530453746.43,46602,15.38,73540.5,0.23,-2.11,-2.15,0,*4E
1530453747.61,46603,15.38,73540.0,0.27,-2.35,-2.43,0,*4E
1530453748.85,46604,15.38,73542.5,0.27,-2.55,-2.67,0,*49
1530453750.04,46605,15.38,73542.8,0.27,-2.31,-2.35,0,*4D
1530453751.25,46606,15.38,73540.3,0.27,-2.11,-2.23,0,*4B
1530453752.44,46607,15.38,73542.3,0.27,-2.31,-2.35,0,*4F
1530453753.66,46608,15.38,73546.0,0.27,-2.11,-2.23,0,*45
1530453754.84,46609,15.38,73542.0,0.31,-2.15,-2.19,0,*4E
1530453756.02,46610,15.38,73542.5,0.31,-2.15,-2.19,0,*46
1530453757.23,46611,15.38,73538.8,0.29,-2.23,-2.23,0,*42
1530453758.41,46612,15.38,73542.0,0.31,-2.35,-2.31,0,*4C
1530453759.67,46613,15.38,73540.8,0.29,-2.67,-2.59,0,*4D
1530453760.93,46614,15.38,73540.5,0.29,-2.55,-2.47,0,*44
1530453762.16,46615,15.38,73540.8,0.31,-2.55,-2.55,0,*4F
1530453763.42,46616,15.38,73540.8,0.29,-2.59,-2.59,0,*45
1530453764.62,46617,15.38,73540.5,0.29,-3.07,-3.07,0,*44
1530453765.83,46618,15.38,73540.8,0.29,-3.11,-3.11,0,*4B
1530453767.01,46619,15.38,73544.3,0.31,-3.07,-3.07,0,*43
1530453768.22,46620,15.38,73544.3,0.29,-2.99,-3.07,0,*46
1530453769.48,46621,15.38,73542.0,0.29,-2.71,-2.71,0,*41
1530453770.72,46622,15.38,73540.3,0.27,-2.55,-2.47,0,*4F
1530453771.96,46623,15.38,73542.8,0.27,-2.55,-2.55,0,*4D
1530453773.19,46624,15.38,73542.8,0.27,-2.55,-2.59,0,*46
1530453774.37,46625,15.38,73540.3,0.27,-2.35,-2.43,0,*4A
1530453775.61,46626,15.38,73542.5,0.23,-2.51,-2.59,0,*44
1530453776.87,46627,15.38,73542.0,0.29,-2.47,-2.47,0,*47
1530453778.07,46628,15.38,73542.3,0.29,-2.35,-2.43,0,*49
1530453779.31,46629,15.38,73542.8,0.29,-2.43,-2.47,0,*4D
1530453780.51,46630,15.38,73540.3,0.29,-2.35,-2.35,0,*41
1530453781.72,46631,15.38,73538.3,0.29,-2.35,-2.31,0,*44
1530453782.96,46632,15.38,73546.0,0.29,-2.47,-2.43,0,*47
1530453784.22,46633,15.38,73542.5,0.29,-2.47,-2.47,0,*42
1530453785.43,46634,15.38,73542.5,0.29,-2.43,-2.43,0,*45
1530453786.69,46635,15.38,73544.3,0.29,-2.59,-2.67,0,*49
1530453787.92,46636,15.38,73542.5,0.29,-2.43,-2.47,0,*43
1530453789.13,46637,15.38,73540.0,0.29,-2.35,-2.35,0,*46
1530453790.33,46638,15.38,73540.5,0.29,-2.43,-2.43,0,*49
1530453791.56,46639,15.38,73542.3,0.31,-2.55,-2.55,0,*41
1530453792.82,46640,15.38,73542.8,0.29,-2.59,-2.67,0,*4B
1530453794.01,46641,15.38,73544.5,0.31,-2.31,-2.39,0,*46
1530453795.18,46642,15.38,73544.3,0.31,-2.43,-2.43,0,*4D
1530453796.42,46643,15.38,73540.8,0.31,-2.55,-2.63,0,*49
1530453797.68,46644,15.38,73546.3,0.29,-2.59,-2.71,0,*48
1530453798.91,46645,15.38,73542.8,0.31,-2.71,-2.71,0,*4A
1530453800.09,46646,15.38,73542.3,0.31,-2.79,-2.79,0,*49
1530453801.33,46647,15.38,73542.0,0.31,-2.55,-2.63,0,*4D
1530453802.57,46648,15.38,73542.0,0.31,-2.63,-2.67,0,*43
1530453803.82,46649,15.38,73542.0,0.29,-2.67,-2.67,0,*4F
1530453805.06,46650,15.38,73542.0,0.31,-2.67,-2.67,0,*4E
1530453806.3,46651,15.38,73546.8,0.31,-2.63,-2.63,0,*4F
1530453807.54,46652,15.38,73542.8,0.31,-2.63,-2.63,0,*4C
1530453808.77,46653,15.38,73546.8,0.31,-2.67,-2.75,0,*4E
1530453810.0,46654,15.38,73542.0,0.31,-2.67,-2.67,0,*4A
1530453811.19,46655,15.38,73542.8,0.31,-2.95,-3.15,0,*42
1530453812.39,46656,15.38,73542.0,0.29,-2.91,-2.99,0,*49
1530453813.61,46657,15.38,73538.8,0.29,-2.95,-2.95,0,*40
1530453814.82,46658,15.38,73538.8,0.29,-2.83,-2.95,0,*48
1530453816.05,46659,15.38,73536.8,0.29,-2.79,-2.71,0,*46
1530453817.29,46660,15.38,73540.3,0.31,-2.63,-2.63,0,*4D
1530453818.48,46661,15.38,73538.3,0.31,-3.15,-3.27,0,*4D
1530453819.69,46662,15.38,73536.8,0.29,-3.11,-3.07,0,*41
1530453820.87,46663,15.38,73536.3,0.31,-3.07,-3.07,0,*4E
1530453822.07,46664,15.38,73540.5,0.29,-3.19,-3.23,0,*49
1530453823.28,46665,15.38,73546.0,0.29,-3.07,-2.99,0,*47
1530453824.49,46666,15.38,73544.3,0.29,-2.91,-2.95,0,*46
1530453825.69,46667,15.38,73546.5,0.29,-3.11,-3.23,0,*42
1530453826.92,46668,15.38,73546.0,0.29,-3.35,-3.43,0,*4D
1530453828.13,46669,15.38,73548.3,0.23,-3.47,-3.79,0,*4A
1530453829.37,46670,15.38,73544.0,0.23,-3.59,-3.63,0,*46
1530453830.59,46671,15.38,73544.0,0.27,-3.47,-3.55,0,*49
1530453831.8,46672,15.38,73546.0,0.21,-3.31,-3.39,0,*47
1530453833.01,46673,15.38,73544.0,0.21,-3.27,-3.19,0,*43
1530453834.22,46674,15.38,73546.3,0.21,-3.19,-3.19,0,*49
1530453835.4,46675,15.38,73544.0,0.23,-3.15,-3.15,0,*4A
1530453836.59,46676,15.38,73544.8,0.23,-3.27,-3.27,0,*49
1530453837.77,46677,15.38,73542.5,0.27,-3.11,-3.19,0,*44
1530453838.95,46678,15.38,73540.8,0.23,-3.11,-3.23,0,*46
1530453840.16,46679,15.38,73540.8,0.21,-3.15,-3.15,0,*44
1530453841.37,46680,15.38,73540.3,0.21,-3.19,-3.27,0,*4F
1530453842.57,46681,15.38,73542.8,0.21,-3.27,-3.19,0,*4E
1530453843.83,46682,15.38,73540.8,0.21,-3.43,-3.43,0,*40
1530453845.08,46683,15.38,73542.8,0.21,-3.43,-3.51,0,*42
1530453846.29,46684,15.38,73540.3,0.19,-3.43,-3.31,0,*48
1530453847.47,46685,15.38,73538.8,0.19,-3.15,-3.19,0,*40
1530453848.68,46686,15.38,73538.8,0.21,-3.39,-3.39,0,*44
1530453849.86,46687,15.38,73540.5,0.19,-3.31,-3.31,0,*4E
1530453851.07,46688,15.38,73538.5,0.21,-3.19,-3.15,0,*46
1530453852.28,46689,15.38,73538.0,0.21,-3.03,-3.07,0,*4F
1530453853.46,46690,15.38,73538.3,0.19,-3.15,-3.19,0,*44
1530453854.64,46691,15.38,73542.3,0.19,-3.27,-3.19,0,*44
1530453855.83,46692,15.38,73540.0,0.19,-3.15,-3.15,0,*4A
1530453857.01,46693,15.38,73542.5,0.19,-3.19,-3.27,0,*46
1530453858.19,46694,15.38,73538.0,0.19,-3.19,-3.15,0,*40
1530453859.38,46695,15.38,73540.5,0.19,-3.15,-3.27,0,*4C
1530453860.58,46696,15.38,73546.0,0.17,-3.23,-3.31,0,*43
1530453861.79,46697,15.38,73544.0,0.17,-3.11,-3.19,0,*49
1530453862.99,46698,15.38,73540.8,0.17,-3.31,-3.35,0,*4A
1530453864.2,46699,15.38,73542.3,0.15,-3.35,-3.43,0,*4C
1530453865.4,46700,15.38,73542.3,0.17,-3.11,-3.31,0,*4C
1530453866.61,46701,15.38,73542.8,0.17,-3.03,-2.95,0,*41
1530453867.82,46702,15.38,73540.8,0.17,-2.95,-3.07,0,*46
1530453869.02,46703,15.38,73542.8,0.17,-3.19,-3.23,0,*44
1530453870.23,46704,15.38,73540.0,0.17,-3.07,-3.07,0,*4A
1530453871.41,46705,15.38,73540.5,0.15,-3.11,-3.19,0,*41
1530453872.64,46706,15.38,73540.8,0.17,-3.35,-3.43,0,*49
1530453873.87,46707,15.38,73540.5,0.15,-3.47,-3.55,0,*48
1530453875.05,46708,15.38,73542.8,0.15,-3.31,-3.35,0,*40
1530453876.29,46709,15.38,73538.5,0.15,-3.59,-3.59,0,*45
1530453877.52,46710,15.38,73540.8,0.15,-3.47,-3.55,0,*4E
1530453878.76,46711,15.38,73540.0,0.15,-3.47,-3.59,0,*43
1530453879.99,46712,15.38,73540.5,0.15,-3.43,-3.43,0,*4F
1530453881.21,46713,15.38,73542.0,0.13,-3.27,-3.27,0,*48
1530453882.42,46714,15.38,73542.5,0.13,-3.11,-3.15,0,*4B
1530453883.62,46715,15.38,73540.0,0.13,-3.11,-3.15,0,*4A
1530453884.82,46716,15.38,73536.5,0.13,-3.23,-3.23,0,*4D
1530453886.03,46717,15.38,73542.0,0.11,-3.23,-3.27,0,*4A
1530453887.24,46718,15.38,73536.8,0.13,-3.27,-3.35,0,*40
1530453888.47,46719,15.38,73536.5,0.11,-3.35,-3.47,0,*45
1530453889.67,46720,15.38,73542.3,0.13,-3.23,-3.23,0,*48
1530453890.87,46721,15.38,73540.5,0.11,-3.07,-3.11,0,*4C
1530453892.1,46722,15.38,73542.8,0.11,-3.35,-3.47,0,*4D
1530453893.33,46723,15.38,73540.8,0.11,-3.59,-3.75,0,*47
1530453894.54,46724,15.38,73544.3,0.11,-3.27,-3.39,0,*41
1530453895.74,46725,15.38,73542.5,0.11,-3.11,-3.23,0,*4E
1530453896.96,46726,15.38,73546.8,0.11,-3.39,-3.51,0,*42
1530453898.17,46727,15.38,73542.3,0.11,-3.27,-3.35,0,*4E
1530453899.39,46728,15.38,73542.3,0.09,-3.63,-3.67,0,*7F
1530453900.64,46729,15.38,73542.3,0.07,-3.55,-3.55,0,*74
1530453901.86,46730,15.38,73544.5,0.09,-3.55,-3.63,0,*77
1530453903.04,46731,15.38,73540.3,0.09,-3.95,-4.09,0,*71
1530453904.24,46732,15.38,73542.5,0.07,-4.53,-4.65,0,*7B
1530453905.5,46733,15.38,73542.3,0.07,-4.73,-4.81,0,*72
1530453906.72,46734,15.38,73546.5,0.01,-4.77,-4.81,0,*77
1530453907.95,46735,15.38,73542.5,0.01,-5.03,-5.07,0,*7B
1530453909.19,46736,15.38,73542.3,0.01,-5.31,-5.27,0,*7B
1530453910.42,46737,15.38,73540.5,-0.03,-4.93,-5.03,0,*5A
1530453911.63,46738,15.38,73540.3,-0.07,-5.23,-5.35,0,*5E
1530453912.87,46739,15.38,73540.5,-0.09,-5.31,-5.39,0,*5E
1530453914.12,46740,15.38,73538.8,-0.11,-5.07,-5.15,0,*62
1530453915.35,46741,15.38,73542.5,-0.11,-4.77,-4.85,0,*6D
1530453916.59,46742,15.38,73540.8,-0.11,-4.89,-4.85,0,*6F
1530453917.85,46743,15.38,73542.8,-0.13,-4.69,-4.69,0,*60
1530453919.11,46744,15.38,73542.5,-0.13,-4.77,-4.77,0,*67
1530453920.35,46745,15.38,73538.0,-0.15,-4.89,-4.89,0,*60
1530453921.56,46746,15.38,73542.0,-0.15,-4.93,-4.99,0,*69
1530453922.83,46747,15.38,73540.3,-0.17,-4.81,-4.81,0,*60
1530453924.06,46748,15.38,73536.8,-0.21,-4.73,-4.73,0,*6A
1530453925.33,46749,15.38,73542.3,-0.23,-5.07,-5.03,0,*6D
1530453926.57,46750,15.38,73540.3,-0.25,-4.73,-4.77,0,*63
1530453927.8,46751,15.38,73540.0,-0.25,-4.77,-4.85,0,*6B
1530453929.07,46752,15.38,73540.5,-0.27,-5.11,-5.19,0,*6F
1530453930.34,46753,15.38,73542.0,-0.27,-5.07,-5.07,0,*66
1530453931.59,46754,15.38,73542.5,-0.29,-5.03,-5.03,0,*6F
1530453932.83,46755,15.38,73540.0,-0.29,-4.77,-4.81,0,*67
1530453934.09,46756,15.38,73542.0,-0.31,-4.81,-4.93,0,*67
1530453935.33,46757,15.38,73540.5,-0.33,-4.85,-4.89,0,*6B
1530453936.58,46758,15.38,73536.3,-0.33,-5.15,-5.11,0,*6C
1530453937.81,46759,15.38,73540.3,-0.33,-4.73,-4.73,0,*69
1530453939.01,46760,15.38,73540.0,-0.33,-4.61,-4.61,0,*63
1530453940.2,46761,15.38,73538.5,-0.33,-4.61,-4.61,0,*62
1530453941.4,46762,15.38,73542.5,-0.33,-4.53,-4.65,0,*64
1530453942.58,46763,15.38,73538.8,-0.37,-4.53,-4.61,0,*65
1530453943.78,46764,15.38,73538.8,-0.37,-4.65,-4.65,0,*63
1530453944.96,46765,15.38,73536.8,-0.37,-4.37,-4.33,0,*66
1530453946.15,46766,15.38,73540.3,-0.37,-4.37,-4.37,0,*61
1530453947.34,46767,15.38,73536.0,-0.37,-4.53,-4.53,0,*60
1530453948.52,46768,15.38,73538.0,-0.37,-4.37,-4.41,0,*6E
1530453949.73,46769,15.38,73532.3,-0.39,-4.53,-4.45,0,*67
1530453951.0,46770,15.38,73536.3,-0.39,-4.89,-4.93,0,*63
1530453952.21,46771,15.38,73532.3,-0.43,-5.39,-5.35,0,*68
1530453953.48,46772,15.38,73540.5,-0.43,-5.07,-5.11,0,*60
1530453954.69,46773,15.38,73540.0,-0.45,-4.89,-4.99,0,*61
1530453955.95,46774,15.38,73538.0,-0.47,-4.77,-4.89,0,*64
1530453957.18,46775,15.38,73538.0,-0.47,-4.89,-4.99,0,*65
1530453958.44,46776,15.38,73536.3,-0.47,-4.85,-4.89,0,*6B
1530453959.7,46777,15.38,73538.5,-0.49,-5.03,-5.07,0,*6C
1530453960.97,46778,15.38,73538.3,-0.51,-5.03,-5.03,0,*6E
1530453962.19,46779,15.38,73542.3,-0.51,-5.35,-5.35,0,*6F
1530453963.4,46780,15.38,73536.0,-0.51,-5.43,-5.43,0,*69
1530453964.66,46781,15.38,73534.8,-0.55,-5.11,-5.19,0,*64
1530453965.94,46782,15.38,73538.8,-0.55,-5.23,-5.23,0,*6F
1530453967.15,46783,15.38,73538.5,-0.57,-5.27,-5.35,0,*6F
1530453968.43,46784,15.38,73536.0,-0.59,-5.15,-5.23,0,*60
1530453969.7,46785,15.38,73540.3,-0.59,-5.27,-5.27,0,*64
1530453970.95,46786,15.38,73540.8,-0.61,-5.19,-5.27,0,*61
1530453972.2,46787,15.38,73540.0,-0.61,-5.15,-5.27,0,*6C
1530453973.44,46788,15.38,73542.8,-0.61,-5.07,-5.19,0,*6D
1530453974.7,46789,15.38,73538.8,-0.63,-4.77,-4.89,0,*60
1530453975.96,46790,15.38,73538.3,-0.63,-4.69,-4.77,0,*66
1530453977.22,46791,15.38,73542.8,-0.63,-4.81,-4.93,0,*6B
1530453978.49,46792,15.38,73540.8,-0.67,-5.11,-5.11,0,*6F
1530453979.73,46793,15.38,73542.3,-0.67,-4.99,-5.07,0,*68
1530453980.96,46794,15.38,73540.5,-0.69,-4.85,-4.89,0,*6B
1530453982.19,46795,15.38,73544.3,-0.69,-4.69,-4.77,0,*69
1530453983.41,46796,15.38,73542.0,-0.69,-4.73,-4.61,0,*66
1530453984.59,46797,15.38,73540.5,-0.69,-4.49,-4.57,0,*6B
1530453985.79,46798,15.38,73542.3,-0.69,-4.57,-4.57,0,*6B
1530453987.03,46799,15.38,73542.0,-0.71,-4.57,-4.69,0,*6E
1530453988.24,46800,15.38,73544.3,-0.71,-4.49,-4.49,0,*6C
1530453989.45,46801,15.38,73542.3,-0.71,-4.49,-4.49,0,*6D
1530453990.66,46802,15.38,73542.3,-0.71,-4.37,-4.37,0,*6E
1530453991.86,46803,15.38,73542.0,-0.71,-4.45,-4.49,0,*63
1530453993.05,46804,15.38,73542.5,-0.73,-4.41,-4.41,0,*6A
1530453994.27,46805,15.38,73542.0,-0.71,-4.25,-4.25,0,*69
1530453995.45,46806,15.38,73540.0,-0.73,-4.49,-4.49,0,*68
1530453996.64,46807,15.38,73542.5,-0.73,-4.25,-4.29,0,*65
1530453997.86,46808,15.38,73542.3,-0.71,-4.33,-4.37,0,*60
1530453999.05,46809,15.38,73540.8,-0.73,-4.41,-4.41,0,*67
1530454000.23,46810,15.38,73540.8,-0.73,-4.53,-4.53,0,*6F
1530454001.44,46811,15.38,73546.8,-0.73,-4.61,-4.73,0,*6D
1530454002.64,46812,15.38,73542.0,-0.73,-4.25,-4.29,0,*61
1530454003.83,46813,15.38,73542.8,-0.73,-4.25,-4.25,0,*6C
1530454005.08,46814,15.38,73546.8,-0.75,-4.01,-4.05,0,*69
1530454006.3,46815,15.38,73544.0,-0.75,-3.83,-3.87,0,*68
1530454007.49,46816,15.38,73542.8,-0.77,-4.17,-4.33,0,*6B
1530454008.7,46817,15.38,73544.8,-0.75,-4.17,-4.25,0,*6F
1530454009.92,46818,15.38,73544.5,-0.75,-4.41,-4.41,0,*61
1530454011.1,46819,15.38,73544.0,-0.77,-4.41,-4.45,0,*66
1530454012.31,46820,15.38,73546.0,-0.77,-4.21,-4.21,0,*68
1530454013.5,46821,15.38,73544.3,-0.77,-3.79,-3.79,0,*69
1530454014.75,46822,15.38,73542.5,-0.75,-3.95,-4.01,0,*62
1530454015.98,46823,15.38,73544.3,-0.75,-3.83,-3.75,0,*60
1530454017.2,46824,15.38,73542.0,-0.75,-3.83,-3.83,0,*6E
1530454018.46,46825,15.38,73540.0,-0.75,-3.51,-3.51,0,*6F
1530454019.66,46826,15.38,73542.8,-0.77,-3.75,-3.75,0,*6E
1530454020.92,46827,15.38,73542.3,-0.75,-3.71,-3.71,0,*6D
1530454022.15,46828,15.38,73544.5,-0.77,-3.67,-3.63,0,*64
1530454023.41,46829,15.38,73544.8,-0.75,-3.51,-3.51,0,*63
1530454024.64,46830,15.38,73546.0,-0.75,-3.27,-3.27,0,*6B
1530454025.83,46831,15.38,73544.5,-0.73,-3.35,-3.35,0,*6C
1530454027.01,46832,15.38,73542.8,-0.73,-3.27,-3.23,0,*6B
1530454028.19,46833,15.38,73540.3,-0.73,-3.23,-3.15,0,*6B
1530454029.37,46834,15.38,73540.5,-0.73,-3.07,-3.07,0,*69
1530454030.58,46835,15.38,73540.3,-0.71,-3.11,-3.07,0,*6D
1530454031.84,46836,15.38,73544.5,-0.71,-3.47,-3.55,0,*6A
1530454033.1,46837,15.38,73548.0,-0.71,-3.55,-3.59,0,*64
1530454034.32,46838,15.38,73548.5,-0.71,-3.83,-3.95,0,*60
1530454035.57,46839,15.38,73544.0,-0.71,-4.01,-4.13,0,*65
1530454036.77,46840,15.38,73540.8,-0.71,-4.45,-4.49,0,*64
1530454037.95,46841,15.38,73544.5,-0.73,-4.45,-4.45,0,*6B
1530454039.14,46842,15.38,73540.0,-0.73,-4.13,-4.13,0,*68
1530454040.32,46843,15.38,73540.8,-0.73,-4.13,-4.17,0,*6D
1530454041.51,46844,15.38,73542.0,-0.77,-4.29,-4.29,0,*6A
1530454042.73,46845,15.38,73538.5,-0.75,-4.29,-4.29,0,*69
1530454043.94,46846,15.38,73540.0,-0.75,-4.05,-4.17,0,*69
1530454045.16,46847,15.38,73542.0,-0.75,-4.49,-4.53,0,*60
1530454046.35,46848,15.38,73540.3,-0.77,-4.53,-4.57,0,*62
1530454047.57,46849,15.38,73540.3,-0.75,-4.25,-4.25,0,*65
1530454048.76,46850,15.38,73540.3,-0.77,-3.87,-3.87,0,*6F
1530454049.96,46851,15.38,73542.8,-0.77,-3.75,-3.75,0,*6E
1530454051.2,46852,15.38,73538.0,-0.75,-3.83,-3.71,0,*62
1530454052.39,46853,15.38,73542.5,-0.77,-3.87,-3.91,0,*6B
1530454053.58,46854,15.38,73540.8,-0.77,-4.09,-4.17,0,*64
1530454054.77,46855,15.38,73540.8,-0.77,-4.29,-4.33,0,*61
1530454055.96,46856,15.38,73542.5,-0.77,-4.17,-4.29,0,*64
1530454057.21,46857,15.38,73540.5,-0.79,-4.01,-3.91,0,*68
1530454058.43,46858,15.38,73546.3,-0.79,-3.87,-3.79,0,*68
1530454059.65,46859,15.38,73542.8,-0.79,-3.79,-3.75,0,*64
1530454060.85,46860,15.38,73542.0,-0.81,-3.83,-3.91,0,*66
1530454062.1,46861,15.38,73544.0,-0.79,-3.67,-3.75,0,*60
1530454063.36,46862,15.38,73542.5,-0.79,-3.51,-3.63,0,*61
1530454064.6,46863,15.38,73542.8,-0.81,-3.47,-3.55,0,*65
1530454065.79,46864,15.38,73542.0,-0.77,-3.39,-3.39,0,*68
1530454066.98,46865,15.38,73542.0,-0.77,-3.39,-3.39,0,*69
1530454068.17,46866,15.38,73540.0,-0.77,-3.15,-3.15,0,*6A
1530454069.35,46867,15.38,73544.0,-0.77,-3.15,-3.19,0,*67
1530454070.57,46868,15.38,73544.8,-0.77,-3.43,-3.39,0,*69
1530454071.75,46869,15.38,73544.5,-0.73,-3.15,-3.15,0,*61
1530454072.97,46870,15.38,73540.3,-0.75,-3.15,-3.15,0,*6F
1530454074.18,46871,15.38,73542.0,-0.75,-3.11,-3.15,0,*6A
1530454075.36,46872,15.38,73540.8,-0.77,-3.19,-3.19,0,*6F
1530454076.55,46873,15.38,73540.8,-0.77,-3.31,-3.31,0,*6E
1530454077.81,46874,15.38,73546.0,-0.75,-3.47,-3.47,0,*6B
1530454079.02,46875,15.38,73546.3,-0.75,-3.23,-3.35,0,*6D
1530454080.24,46876,15.38,73546.5,-0.75,-3.75,-3.83,0,*60
1530454081.43,46877,15.38,73542.8,-0.73,-4.17,-4.17,0,*6E
1530454082.64,46878,15.38,73546.5,-0.75,-4.41,-4.49,0,*6F
1530454083.84,46879,15.38,73542.5,-0.77,-4.57,-4.61,0,*61
1530454085.03,46880,15.38,73538.3,-0.77,-4.53,-4.57,0,*66
1530454086.24,46881,15.38,73540.5,-0.79,-4.53,-4.57,0,*69
1530454087.46,46882,15.38,73542.3,-0.81,-4.61,-4.73,0,*6A
1530454088.66,46883,15.38,73542.8,-0.81,-4.57,-4.61,0,*6D
1530454089.85,46884,15.38,73540.8,-0.81,-4.49,-4.57,0,*60
1530454091.06,46885,15.38,73542.0,-0.83,-4.37,-4.45,0,*69
1530454092.25,46886,15.38,73538.5,-0.81,-4.37,-4.45,0,*68
1530454093.46,46887,15.38,73538.3,-0.83,-4.49,-4.57,0,*61
1530454094.68,46888,15.38,73540.5,-0.83,-4.49,-4.57,0,*6E
1530454095.89,46889,15.38,73538.8,-0.85,-4.37,-4.37,0,*66
1530454097.1,46890,15.38,73536.3,-0.85,-4.37,-4.37,0,*6E
1530454098.34,46891,15.38,73536.3,-0.85,-4.09,-4.01,0,*67
1530454099.55,46892,15.38,73538.8,-0.85,-3.95,-3.95,0,*6C
1530454100.77,46893,15.38,73536.3,-0.85,-3.95,-3.87,0,*6E
1530454102.03,46894,15.38,73536.3,-0.85,-3.63,-3.59,0,*63
1530454103.24,46895,15.38,73542.8,-0.85,-3.83,-3.83,0,*6B
1530454104.46,46896,15.38,73540.5,-0.85,-3.83,-3.83,0,*68
1530454105.67,46897,15.38,73538.8,-0.85,-3.87,-3.87,0,*69
1530454106.88,46898,15.38,73542.8,-0.85,-3.87,-3.87,0,*66
1530454108.1,46899,15.38,73536.8,-0.85,-3.95,-3.95,0,*67
1530454109.35,46900,15.38,73538.8,-0.85,-3.63,-3.63,0,*66